Location: Forest Hills
(36.0651°N, 86.8403°W)
Time: 23:43:39
(UTC+00:00)

ARIANE 6 FM1 Upper Stage - Pass Details

Date: 23 January 2026
Orbit: 522 x 609 km, 62.0° (Epoch: 10 February)

Event Time Altitude Azimuth Distance (km) Brightness Sun altitude
Rises 23:53:19 0° 215° (SW) 2,728 7.1 -10.0°
Reaches altitude 10° 23:55:34 10° 216° (SW) 1,822 6.1 -10.5°
Maximum altitude 23:59:39 80° 303° (WNW) 555 2.7 -11.3°
Drops below altitude 10° 00:03:40 10° 31° (NNE) 1,787 4.8 -12.0°
Enters shadow 00:03:43 10° 31° (NNE) 1,807 4.8 -12.0°
